DW2849 Weather Reports


Display with metric or nautical units.
time (UTC)temp
F
wind
direction
speed
MPH
gust
MPH
rain 1hr
in
rain 24hr
in
rain mn
in
humidity
%
barometer
mb
20260510013839 65 305 2.0 4.0 0.00 0.00 0.00 73 1012.1
20260510013139 66 292 2.0 4.0 0.00 0.00 0.00 73 1012.1
20260510012439 66 265 2.0 3.0 0.00 0.00 0.00 73 1012.1
20260510011739 66 262 2.0 6.0 0.00 0.00 0.00 72 1012.2
20260510011039 66 240 4.0 6.0 0.00 0.00 0.00 73 1012.2
20260510010339 67 205 2.0 4.0 0.00 0.00 0.00 73 1012.2
20260510005448 67 252 2.0 4.0 0.00 0.00 0.00 72 1012.3
20260510004749 67 233 2.0 5.0 0.00 0.00 0.00 72 1012.3
20260510004048 67 225 2.0 6.0 0.00 0.00 0.00 72 1012.4
20260510003348 68 252 3.0 5.0 0.00 0.00 0.00 71 1012.5
20260510002648 68 278 3.0 5.0 0.00 0.00 0.00 71 1012.5
20260510001756 69 252 3.0 5.0 0.00 0.00 0.00 70 1012.5
20260510001057 69 248 3.0 6.0 0.00 0.00 0.00 70 1012.6
20260510000357 69 281 4.0 6.0 0.00 0.00 0.00 71 1012.7
20260509235505 69 276 4.0 8.0 0.00 0.00 0.00 70 1012.7
20260509234805 69 272 2.0 6.0 0.00 0.00 0.00 72 1012.8
20260509234105 69 265 2.0 4.0 0.00 0.00 0.00 71 1012.9
20260509233405 70 212 2.0 4.0 0.00 0.00 0.00 70 1012.9
20260509232514 71 222 3.0 6.0 0.00 0.00 0.00 69 1013.0
20260509231813 70 228 3.0 7.0 0.00 0.00 0.00 69 1013.0
20260509231114 70 272 4.0 7.0 0.00 0.00 0.00 69 1013.0
20260509230414 70 268 4.0 6.0 0.00 0.00 0.00 70 1013.1
20260509225714 70 304 3.0 6.0 0.00 0.00 0.00 69 1013.2
20260509225014 71 259 3.0 6.0 0.00 0.00 0.00 69 1013.3
20260509224314 71 235 2.0 5.0 0.00 0.00 0.00 69 1013.4
20260509223613 71 222 3.0 4.0 0.00 0.00 0.00 69 1013.5
20260509222913 71 195 3.0 5.0 0.00 0.00 0.00 70 1013.6
20260509222214 71 231 2.0 6.0 0.00 0.00 0.00 70 1013.7
20260509221129 71 208 3.0 6.0 0.00 0.00 0.00 71 1013.9
20260509220429 71 218 3.0 5.0 0.00 0.00 0.00 70 1013.9
20260509215729 71 200 3.0 4.0 0.00 0.00 0.00 70 1014.0
20260509215029 72 200 3.0 5.0 0.00 0.00 0.00 70 1014.0
20260509214329 72 215 3.0 6.0 0.00 0.00 0.00 70 1014.1
20260509213629 72 245 2.0 4.0 0.00 0.00 0.00 71 1014.1
20260509212929 72 219 3.0 4.0 0.00 0.00 0.00 69 1014.2
20260509212229 72 245 3.0 6.0 0.00 0.00 0.00 70 1014.3
20260509211529 73 202 2.0 5.0 0.00 0.00 0.00 70 1014.3
20260509210638 73 228 2.0 4.0 0.00 0.00 0.00 70 1014.3
20260509205747 72 190 3.0 6.0 0.00 0.00 0.00 70 1014.3
20260509205047 72 172 2.0 5.0 0.00 0.00 0.00 70 1014.4
20260509204346 72 233 2.0 5.0 0.00 0.00 0.00 69 1014.3
20260509203647 72 228 3.0 6.0 0.00 0.00 0.00 69 1014.4
20260509202948 71 250 3.0 6.0 0.00 0.00 0.00 71 1014.4
20260509202246 70 208 2.0 6.0 0.00 0.00 0.00 71 1014.5
20260509201547 71 281 4.0 6.0 0.00 0.00 0.00 71 1014.6
20260509200655 71 228 3.0 6.0 0.00 0.00 0.00 71 1014.7
20260509195955 71 258 2.0 6.0 0.00 0.00 0.00 72 1014.7
20260509195256 69 250 3.0 6.0 0.00 0.00 0.00 72 1014.7
20260509194555 69 155 2.0 5.0 0.00 0.00 0.00 72 1014.7
20260509193855 68 188 1.0 4.0 0.00 0.00 0.00 73 1014.7
20260509193155 68 146 2.0 5.0 0.00 0.00 0.00 73 1014.8
20260509192306 68 215 3.0 4.0 0.00 0.00 0.00 73 1014.8
20260509191604 67 185 2.0 4.0 0.00 0.00 0.00 73 1014.9
20260509190904 67 170 2.0 3.0 0.00 0.00 0.00 74 1015.0
20260509190204 66 180 1.0 2.0 0.00 0.00 0.00 75 1015.0
20260509185504 66 186 1.0 3.0 0.00 0.00 0.00 75 1015.0
20260509184804 0 185 1.0 3.0 0.00 0.00 0.00 1015.0
20260509184104 65 132 2.0 3.0 0.00 0.00 0.00 76 1015.0
20260509183021 65 125 1.0 3.0 0.00 0.00 0.00 76 1015.1
20260509182322 65 145 2.0 3.0 0.00 0.00 0.00 75 1015.1
20260509181621 64 174 1.0 3.0 0.00 0.00 0.00 75 1015.1
20260509180922 63 160 2.0 3.0 0.00 0.00 0.00 76 1015.1
20260509180222 63 192 2.0 3.0 0.00 0.00 0.00 76 1015.1
20260509175522 63 178 1.0 3.0 0.00 0.00 0.00 76 1015.1
20260509174822 63 130 2.0 3.0 0.00 0.00 0.00 76 1015.1
20260509173930 0 175 1.0 2.0 0.00 0.00 0.00 1015.1
20260509173230 63 194 1.0 3.0 0.00 0.00 0.00 76 1015.0
20260509172338 63 180 2.0 3.0 0.00 0.00 0.00 76 1015.0
20260509171639 62 140 1.0 3.0 0.00 0.00 0.00 77 1015.0
20260509170938 62 182 2.0 2.0 0.00 0.00 0.00 76 1015.0
20260509170238 62 180 1.0 2.0 0.00 0.00 0.00 76 1015.0
20260509165347 62 172 1.0 2.0 0.00 0.00 0.00 77 1015.0
20260509164647 61 164 1.0 2.0 0.00 0.00 0.00 77 1015.0
20260509163946 61 170 1.0 2.0 0.00 0.00 0.00 77 1014.9
20260509163055 60 161 0.0 2.0 0.00 0.00 0.00 78 1014.9
20260509162355 60 194 1.0 2.0 0.00 0.00 0.00 77 1014.9
20260509161655 59 129 1.0 2.0 0.00 0.00 0.00 78 1015.0
20260509160955 59 225 0.0 1.0 0.00 0.00 0.00 80 1015.0
20260509160255 58 208 0.0 2.0 0.00 0.00 0.00 80 1015.0
20260509155555 57 129 0.0 2.0 0.00 0.00 0.00 79 1014.9
20260509154855 56 122 0.0 2.0 0.00 0.00 0.00 81 1014.9
20260509154155 56 180 0.0 2.0 0.00 0.00 0.00 80 1014.9
20260509153304 56 219 1.0 2.0 0.00 0.00 0.00 80 1014.9
20260509152604 55 180 0.0 1.0 0.00 0.00 0.00 81 1014.9
20260509151904 54 129 0.0 1.0 0.00 0.00 0.00 81 1014.9
20260509151012 53 138 0.0 2.0 0.00 0.00 0.00 82 1014.8
20260509150314 52 197 1.0 2.0 0.00 0.00 0.00 83 1014.8
20260509145612 52 228 1.0 2.0 0.00 0.00 0.00 84 1014.7
20260509144912 51 209 0.0 1.0 0.00 0.00 0.00 84 1014.7
20260509144212 51 202 0.0 1.0 0.00 0.00 0.00 84 1014.6
20260509143321 51 202 1.0 1.0 0.00 0.00 0.00 85 1014.6
20260509142622 52 202 0.0 2.0 0.00 0.00 0.00 84 1014.6
20260509141921 52 180 1.0 2.0 0.00 0.00 0.00 85 1014.6
20260509141220 52 0 0.0 0.0 0.00 0.00 0.00 84 1014.7
20260509140330 53 0 0.0 0.0 0.00 0.00 0.00 82 1014.6
20260509135629 52 267 0.0 1.0 0.00 0.00 0.00 83 1014.5
20260509134930 52 202 1.0 2.0 0.00 0.00 0.00 83 1014.4
20260509134229 53 225 1.0 2.0 0.00 0.00 0.00 82 1014.3
20260509133529 53 209 1.0 2.0 0.00 0.00 0.00 81 1014.2
20260509132829 54 197 0.0 1.0 0.00 0.00 0.00 80 1014.2
20260509132130 53 45 0.0 0.0 0.00 0.00 0.00 80 1014.2
20260509131237 53 45 0.0 0.0 0.00 0.00 0.00 82 1014.2
20260509130537 53 0 0.0 3.0 0.00 0.00 0.00 81 1014.2
20260509125645 54 0 2.0 2.0 0.00 0.00 0.00 81 1014.2
20260509124945 54 35 2.0 3.0 0.00 0.00 0.00 81 1014.1
20260509124245 54 31 3.0 3.0 0.00 0.00 0.00 81 1014.1
20260509123545 54 0 3.0 3.0 0.00 0.00 0.00 81 1014.1
20260509122845 54 0 2.0 3.0 0.00 0.00 0.00 81 1014.1
20260509122145 54 0 2.0 3.0 0.00 0.00 0.00 81 1014.1
20260509121254 54 0 2.0 2.0 0.00 0.00 0.00 82 1014.1
20260509120554 54 0 2.0 3.0 0.00 0.00 0.00 82 1014.1
20260509115856 54 0 3.0 3.0 0.00 0.00 0.00 82 1014.1
20260509115003 55 6 3.0 4.0 0.00 0.00 0.00 82 1014.1
20260509114303 55 28 3.0 4.0 0.00 0.00 0.00 81 1014.1
20260509113603 55 22 3.0 3.0 0.00 0.00 0.00 81 1014.2
20260509112903 55 0 3.0 4.0 0.00 0.00 0.00 82 1014.2
20260509112203 55 22 3.0 4.0 0.00 0.00 0.00 82 1014.2
20260509111311 55 0 3.0 3.0 0.00 0.00 0.00 82 1014.2
20260509110611 55 0 3.0 3.0 0.00 0.00 0.00 82 1014.1
20260509105912 55 0 2.0 3.0 0.00 0.00 0.00 82 1014.2
20260509105212 55 45 2.0 3.0 0.00 0.00 0.00 82 1014.2
20260509104512 55 45 2.0 2.0 0.00 0.00 0.00 82 1014.2
20260509103811 56 45 2.0 2.0 0.00 0.00 0.00 80 1014.2
20260509103112 56 45 2.0 3.0 0.00 0.00 0.00 80 1014.2
20260509102411 57 45 2.0 2.0 0.00 0.00 0.00 79 1014.2
20260509101520 57 45 2.0 2.0 0.00 0.00 0.00 79 1014.2
20260509100820 58 45 1.0 2.0 0.00 0.00 0.00 78 1014.2
20260509095929 58 45 1.0 2.0 0.00 0.00 0.00 77 1014.2
20260509095229 58 45 1.0 2.0 0.00 0.00 0.00 77 1014.2
20260509094529 58 45 2.0 2.0 0.00 0.00 0.00 77 1014.2
20260509093829 58 45 2.0 2.0 0.00 0.00 0.00 75 1014.2
20260509093129 59 45 1.0 2.0 0.00 0.00 0.00 74 1014.2
20260509092238 59 45 2.0 2.0 0.00 0.00 0.00 74 1014.3
20260509091538 59 45 1.0 2.0 0.00 0.00 0.00 71 1014.4
20260509090838 59 45 2.0 2.0 0.00 0.00 0.00 71 1014.4
20260509090138 59 45 1.0 2.0 0.00 0.00 0.00 72 1014.4
20260509085438 58 45 2.0 2.0 0.00 0.00 0.00 75 1014.4
20260509084738 58 45 1.0 2.0 0.00 0.00 0.00 78 1014.4
20260509084037 58 45 1.0 2.0 0.00 0.00 0.00 78 1014.6
20260509083338 58 45 1.0 2.0 0.00 0.00 0.00 79 1014.7
20260509082637 58 45 1.0 2.0 0.00 0.00 0.00 78 1014.7
20260509081938 59 45 1.0 2.0 0.00 0.00 0.00 78 1014.7
20260509081046 59 45 1.0 2.0 0.00 0.00 0.00 77 1014.6
20260509080346 59 45 1.0 2.0 0.00 0.00 0.00 76 1014.7
20260509075455 59 45 2.0 2.0 0.00 0.00 0.00 75 1014.7
20260509074755 58 45 2.0 2.0 0.00 0.00 0.00 77 1014.8
20260509074055 58 39 1.0 2.0 0.00 0.00 0.00 77 1014.8
20260509073204 58 45 1.0 2.0 0.00 0.00 0.00 77 1014.9
20260509072504 59 45 1.0 2.0 0.00 0.00 0.00 74 1014.8
20260509071804 59 45 1.0 2.0 0.00 0.00 0.00 69 1014.8
20260509071104 60 25 0.0 0.0 0.00 0.00 0.00 67 1014.9
20260509070404 61 0 0.0 0.0 0.00 0.00 0.00 65 1014.9
20260509065513 60 315 0.0 1.0 0.00 0.00 0.00 66 1015.0
20260509064812 60 315 0.0 2.0 0.00 0.00 0.00 66 1015.0
20260509064112 59 275 1.0 2.0 0.00 0.00 0.00 67 1015.1
20260509063412 59 270 2.0 2.0 0.00 0.00 0.00 67 1015.1
20260509062712 59 315 0.0 2.0 0.00 0.00 0.00 67 1015.0
20260509062012 59 340 1.0 2.0 0.00 0.00 0.00 68 1015.1
20260509061312 58 270 1.0 3.0 0.00 0.00 0.00 69 1015.2
20260509060613 59 285 2.0 3.0 0.00 0.00 0.00 69 1015.2
20260509055912 59 270 1.0 2.0 0.00 0.00 0.00 69 1015.3
20260509055212 59 270 1.0 2.0 0.00 0.00 0.00 69 1015.3
20260509054321 59 270 1.0 2.0 0.00 0.00 0.00 70 1015.2
20260509053621 59 315 1.0 2.0 0.00 0.00 0.00 71 1015.4
20260509052921 59 315 1.0 2.0 0.00 0.00 0.00 71 1015.4
20260509052030 59 315 1.0 2.0 0.00 0.00 0.00 71 1015.4
20260509051330 59 270 2.0 3.0 0.00 0.00 0.00 72 1015.3
20260509050629 59 270 2.0 3.0 0.00 0.00 0.00 73 1015.4
20260509045929 59 270 2.0 3.0 0.00 0.00 0.00 74 1015.3
20260509045229 59 270 2.0 3.0 0.00 0.00 0.00 74 1015.3
20260509044338 59 222 0.0 0.0 0.00 0.00 0.00 74 1015.3
20260509043638 60 225 0.0 2.0 0.00 0.00 0.00 72 1015.2
20260509042747 61 315 0.0 2.0 0.00 0.00 0.00 72 1015.1
20260509042047 61 315 1.0 2.0 0.00 0.00 0.00 73 1015.1
20260509041347 61 315 1.0 2.0 0.00 0.00 0.00 74 1015.0
20260509040647 60 322 0.0 2.0 0.00 0.00 0.00 80 1015.1
20260509035947 61 270 1.0 2.0 0.00 0.00 0.00 80 1015.0
20260509035247 61 315 2.0 2.0 0.00 0.00 0.00 79 1014.9
20260509034547 61 315 2.0 2.0 0.00 0.00 0.00 80 1014.9
20260509033847 61 350 1.0 2.0 0.00 0.00 0.00 78 1015.0
20260509033147 62 0 0.0 2.0 0.00 0.00 0.00 76 1014.9
20260509032257 62 0 0.0 2.0 0.00 0.00 0.00 75 1014.9
20260509031556 62 315 0.0 0.0 0.00 0.00 0.00 75 1014.8
20260509030855 63 0 0.0 0.0 0.00 0.00 0.00 77 1014.7
20260509030156 62 0 0.0 0.0 0.00 0.00 0.00 77 1014.6
20260509025306 61 315 0.0 0.0 0.00 0.00 0.00 76 1014.6
20260509024605 62 315 0.0 0.0 0.00 0.00 0.00 75 1014.6
20260509023905 62 315 0.0 2.0 0.00 0.00 0.00 75 1014.6
20260509023204 63 315 1.0 2.0 0.00 0.00 0.00 75 1014.6
20260509022317 63 315 1.0 2.0 0.00 0.00 0.00 74 1014.6
20260509021613 63 315 1.0 2.0 0.00 0.00 0.00 74 1014.6
20260509020914 64 315 1.0 3.0 0.00 0.00 0.00 73 1014.6
20260509020213 64 315 2.0 3.0 0.00 0.00 0.00 73 1014.6
20260509015513 65 321 1.0 3.0 0.00 0.00 0.00 73 1014.6
20260509014813 65 315 1.0 1.0 0.00 0.00 0.00 73 1014.7
20260509014114 65 343 0.0 1.0 0.00 0.00 0.00 74 1014.7